Regional Weather Roundup
Issued by NWS Portland, ME

Home | Current Version | Previous Version | Text Only | Print | Product List | Glossary On
Versions: 1 2 3 4 5 6 7 8 9 10 11 12 13 14 15 16 17 18 19 20 21 22 23 24 25 26 27 28 29 30 31 32 33 34 35 36 37 38 39 40 41 42 43 44 45 46 47 48 49 50
000
ASUS41 KGYX 110710
RWRGYX
WEATHER ROUNDUP FOR MAINE AND NEW HAMPSHIRE
NATIONAL WEATHER SERVICE GRAY ME
200 AM EST THU FEB 11 2016

MEZ002-005-006-010-012-015-018-020-021-024-026-027-029-110800-
MAINE

CITY           SKY/WX    TMP DP  RH WIND       PRES   REMARKS
PORTLAND       MOCLDY    27  20  75 W7        29.59R
SANFORD        CLEAR     25  18  74 W9        29.60R
BAR HARBOR     CLOUDY    28  27  93 CALM      29.54S
WISCASSET      PTCLDY    23  20  88 VRB3      29.57S
ROCKLAND       CLOUDY    24  23  96 W9        29.54S
FRYEBURG       CLEAR     24  10  55 W6        29.57R
LEWISTONAUBURN PTCLDY    19  16  86 CALM      29.56R
AUGUSTA        CLOUDY    24  17  74 NW6       29.55R
WATERVILLE     CLOUDY    26  19  74 NW9       29.53R
BANGOR         LGT SNOW  28  27  96 NW6       29.54S FOG
GREENVILLE       N/A     15  11  83 N7        29.47S
MILLINOCKET    CLOUDY    24  16  71 NW9       29.55S
HOULTON        FLURRIES  23  19  85 CALM      29.51R
PRESQUE ISLE   FLURRIES  18  14  84 N13       29.55R WCI   5
FRENCHVILLE    MOCLDY    12   7  80 NW10      29.51R WCI  -1
CARIBOU        CLOUDY    17  11  77 N10       29.53R WCI   5
$$

NHZ002-005-008-009-011-012-014-110800-
NEW HAMPSHIRE

CITY           SKY/WX    TMP DP  RH WIND       PRES   REMARKS
PORTSMOUTH     PTCLDY    26  17  66 W8        29.61R
ROCHESTER      CLEAR     25  15  66 CALM      29.60R
NASHUA         CLEAR     21  19  93 W6        29.64S
MANCHESTER     CLEAR     25  19  78 CALM      29.62S
CONCORD        CLEAR     23  12  62 NW7       29.62R
LACONIA        MOCLDY    25  14  63 W7        29.62R
PLYMOUTH       FAIR      23  15  72 W5        29.62R
BERLIN         PTCLDY    17  11  77 CALM      29.57R
WHITEFIELD     MOCLDY    17  12  80 W3        29.59R
JAFFREY        CLEAR     17  14  88 S5        29.60S
KEENE          MOCLDY    21  16  79 MISG      29.64S
LEBANON        CLOUDY    24  16  71 CALM      29.63R
MT WASHINGTON  SNOWSHWR  -2  -2 100 W28         N/A  VSB 1/16WCI -28
$$

VTZ005-007-008-110800-
VERMONT

CITY           SKY/WX    TMP DP  RH WIND       PRES   REMARKS
ST JOHNSBURY     N/A     18  12  77 MISG      29.61R
MONTPELIER     LGT SNOW  17  14  88 CALM      29.63S FOG
BURLINGTON     FLURRIES  22  18  85 CALM      29.65S
$$

MAZ007-012-024-CTZ003-RIZ002-NYZ038-NYZ072-110800-
SOUTHERN NEW ENGLAND AND NY

CITY           SKY/WX    TMP DP  RH WIND       PRES   REMARKS
BOSTON         CLEAR     30  19  63 W12       29.65S
WORCESTER      CLEAR     21  14  74 W13       29.60F WCI   9
NANTUCKET      CLOUDY    34  25  69 NW8       29.64F
PROVIDENCE     PTCLDY    27  18  69 W5        29.67F
HARTFORD       MOCLDY    26  14  60 W8        29.67F
ALBANY         CLOUDY    26  11  52 NW7G20    29.71R
NEW YORK CITY  LGT SNOW  28  19  69 W20G26    29.76R WCI  15
$$

ANZ081-ANZ082-ANZ150-NHZ014-MEZ023>029-110800-
COASTAL MARINE OBSERVATIONS

STATION/POSITION TIME  TEMP    WIND        PRES    WAVE
                       AIR SEA DIR/SP/G            HT/PER
                 (UTC) (F)     (DEG/KT/KT) (MB)    (FT/S)
MOUNT DESERT ROC 0600   35     270/ 14/ 15 1000.0F
MATINICUS ROCK   0600          270/ 21/ 22  999.9F
ISLE OF SHOALS   0600   31     270/ 18/ 20 1001.9R
JEFFREYS LEDGE   0604      44                N/A     6/11
CASHES LEDGE BUO 0650   36 43  270/ 19/ 23 1000.3S   6/10
GEORGES BANK BUO 0550   40 47              1002.4   10/13
$$

.............KEY..............
   WCI - WIND CHILL
   TC  - TEMPERATURE IN CELSIUS
   VSB - VISIBILITY IN MILES
   HX  - HEAT INDEX
   FAIR- INDICATES FEW OR NO CLOUDS BELOW 12,000 FT, WITH NO
         SIGNIFICANT WEATHER AND/OR OBSTRUCTIONS TO VISIBILITY.





USA.gov is the U.S. government's official web portal to all federal, state and local government web resources and services.